Time,TemperatureF,DewpointF,PressureIn,WindDirection,WindDirectionDegrees,WindSpeedMPH,WindSpeedGustMPH,Humidity,HourlyPrecipIn,Conditions,Clouds,dailyrainin,SoftwareType,DateUTC
2013-06-14 00:01:00,57.2,54.9,29.42,North,0,0.0,0.0,92,0.11,,,0.00,WUHU216HW,2013-06-14 04:01:00,
2013-06-14 00:06:00,57.2,54.9,29.43,North,0,0.0,0.0,92,0.10,,,0.01,WUHU216HW,2013-06-14 04:06:00,
2013-06-14 00:11:00,57.2,54.9,29.43,North,0,0.0,0.0,92,0.09,,,0.01,WUHU216HW,2013-06-14 04:11:00,
2013-06-14 00:16:00,57.2,54.9,29.43,North,0,0.0,0.0,92,0.06,,,0.01,WUHU216HW,2013-06-14 04:16:00,
2013-06-14 00:21:00,57.2,54.9,29.43,North,0,0.0,0.0,92,0.06,,,0.01,WUHU216HW,2013-06-14 04:21:00,
2013-06-14 00:26:00,57.1,54.7,29.43,North,0,0.0,0.0,92,0.05,,,0.01,WUHU216HW,2013-06-14 04:26:00,
2013-06-14 00:31:00,57.1,54.7,29.43,North,0,0.0,0.0,92,0.04,,,0.01,WUHU216HW,2013-06-14 04:31:00,
2013-06-14 00:36:00,57.1,54.7,29.43,North,0,0.0,0.0,92,0.03,,,0.02,WUHU216HW,2013-06-14 04:36:00,
2013-06-14 00:41:00,56.9,54.5,29.43,North,0,0.0,0.0,92,0.03,,,0.02,WUHU216HW,2013-06-14 04:41:00,
2013-06-14 00:46:00,56.9,54.5,29.44,North,0,0.0,0.0,92,0.02,,,0.02,WUHU216HW,2013-06-14 04:46:00,
2013-06-14 00:51:00,56.9,54.5,29.44,North,0,0.0,0.0,92,0.02,,,0.02,WUHU216HW,2013-06-14 04:51:00,
2013-06-14 00:56:00,56.7,54.4,29.44,North,0,0.0,0.0,92,0.02,,,0.02,WUHU216HW,2013-06-14 04:56:00,
2013-06-14 01:01:00,56.5,54.2,29.45,North,0,0.0,0.0,92,0.01,,,0.02,WUHU216HW,2013-06-14 05:01:00,
2013-06-14 01:06:00,56.3,54.0,29.45,North,0,0.0,0.0,92,0.01,,,0.02,WUHU216HW,2013-06-14 05:06:00,
2013-06-14 01:11:00,56.2,53.8,29.45,North,0,0.0,0.0,92,0.01,,,0.02,WUHU216HW,2013-06-14 05:11:00,
2013-06-14 01:16:00,56.2,53.8,29.46,North,0,0.0,0.0,92,0.01,,,0.02,WUHU216HW,2013-06-14 05:16:00,
2013-06-14 01:21:00,56.2,53.8,29.46,North,0,0.0,0.0,92,0.01,,,0.02,WUHU216HW,2013-06-14 05:21:00,
2013-06-14 01:26:00,56.0,53.6,29.47,North,0,0.0,0.0,92,0.01,,,0.02,WUHU216HW,2013-06-14 05:26:00,
2013-06-14 01:31:00,55.8,53.5,29.47,North,0,0.0,0.0,92,0.01,,,0.02,WUHU216HW,2013-06-14 05:31:00,
2013-06-14 01:36:00,55.8,53.5,29.48,North,0,0.0,0.0,92,0.00,,,0.02,WUHU216HW,2013-06-14 05:36:00,
2013-06-14 01:41:00,55.6,53.3,29.48,North,0,0.0,0.0,92,0.01,,,0.03,WUHU216HW,2013-06-14 05:41:00,
2013-06-14 01:46:00,55.4,53.1,29.48,North,0,0.0,0.0,92,0.01,,,0.03,WUHU216HW,2013-06-14 05:46:00,
2013-06-14 01:51:00,55.3,52.9,29.48,North,0,0.0,0.0,92,0.02,,,0.04,WUHU216HW,2013-06-14 05:51:00,
2013-06-14 01:56:00,55.3,52.9,29.48,North,0,0.0,0.0,92,0.02,,,0.04,WUHU216HW,2013-06-14 05:56:00,
2013-06-14 02:01:00,55.3,52.9,29.48,North,0,0.0,0.0,92,0.03,,,0.05,WUHU216HW,2013-06-14 06:01:00,
2013-06-14 02:06:00,55.3,52.9,29.48,North,0,0.0,0.0,92,0.04,,,0.06,WUHU216HW,2013-06-14 06:06:00,
2013-06-14 02:11:00,55.3,52.9,29.49,North,0,0.0,0.0,92,0.05,,,0.07,WUHU216HW,2013-06-14 06:11:00,
2013-06-14 02:16:00,55.3,52.9,29.49,North,0,0.0,0.0,92,0.07,,,0.09,WUHU216HW,2013-06-14 06:16:00,
2013-06-14 02:21:00,55.1,52.7,29.49,North,0,0.0,0.0,92,0.07,,,0.09,WUHU216HW,2013-06-14 06:21:00,
2013-06-14 02:26:00,55.1,52.7,29.49,North,0,0.0,0.0,92,0.08,,,0.10,WUHU216HW,2013-06-14 06:26:00,
2013-06-14 02:31:00,55.1,52.7,29.49,North,0,0.0,0.0,92,0.08,,,0.10,WUHU216HW,2013-06-14 06:31:00,
2013-06-14 02:36:00,55.1,53.1,29.49,North,0,0.0,0.0,93,0.08,,,0.11,WUHU216HW,2013-06-14 06:36:00,
2013-06-14 02:41:00,55.1,53.1,29.50,North,0,0.0,0.0,93,0.08,,,0.11,WUHU216HW,2013-06-14 06:41:00,
2013-06-14 02:46:00,55.1,53.1,29.50,North,0,0.0,0.0,93,0.09,,,0.13,WUHU216HW,2013-06-14 06:46:00,
2013-06-14 02:51:00,55.1,52.7,29.50,North,0,0.0,0.0,92,0.08,,,0.13,WUHU216HW,2013-06-14 06:51:00,
2013-06-14 02:56:00,55.1,52.7,29.50,North,0,0.0,0.0,92,0.07,,,0.13,WUHU216HW,2013-06-14 06:56:00,
2013-06-14 03:01:00,55.1,52.7,29.51,North,0,0.0,0.0,92,0.06,,,0.13,WUHU216HW,2013-06-14 07:01:00,
2013-06-14 03:06:00,54.9,52.9,29.51,North,0,0.0,0.0,93,0.06,,,0.13,WUHU216HW,2013-06-14 07:06:00,
2013-06-14 03:11:00,55.1,52.7,29.51,North,0,0.0,0.0,92,0.04,,,0.13,WUHU216HW,2013-06-14 07:11:00,
2013-06-14 03:16:00,54.9,52.9,29.51,North,0,0.0,0.0,93,0.04,,,0.13,WUHU216HW,2013-06-14 07:16:00,
2013-06-14 03:21:00,54.9,52.9,29.50,North,0,0.0,0.0,93,0.03,,,0.13,WUHU216HW,2013-06-14 07:21:00,
2013-06-14 03:26:00,54.9,52.9,29.51,North,0,0.0,0.0,93,0.04,,,0.15,WUHU216HW,2013-06-14 07:26:00,
2013-06-14 03:31:00,54.9,52.6,29.51,North,0,0.0,0.0,92,0.03,,,0.15,WUHU216HW,2013-06-14 07:31:00,
2013-06-14 03:36:00,54.7,52.4,29.51,North,0,0.0,0.0,92,0.02,,,0.15,WUHU216HW,2013-06-14 07:36:00,
2013-06-14 03:41:00,54.7,52.4,29.52,North,0,0.0,0.0,92,0.02,,,0.15,WUHU216HW,2013-06-14 07:41:00,
2013-06-14 03:46:00,54.7,52.8,29.53,North,0,0.0,0.0,93,0.02,,,0.15,WUHU216HW,2013-06-14 07:46:00,
2013-06-14 03:51:00,54.7,52.8,29.52,North,0,0.0,0.0,93,0.02,,,0.15,WUHU216HW,2013-06-14 07:51:00,
2013-06-14 03:56:00,54.5,52.6,29.52,North,0,0.0,0.0,93,0.01,,,0.15,WUHU216HW,2013-06-14 07:56:00,
2013-06-14 04:01:00,54.7,52.8,29.52,North,0,0.0,0.0,93,0.01,,,0.15,WUHU216HW,2013-06-14 08:01:00,
2013-06-14 04:06:00,54.7,52.4,29.52,North,0,0.0,0.0,92,0.01,,,0.15,WUHU216HW,2013-06-14 08:06:00,
2013-06-14 04:11:00,54.5,52.2,29.52,North,0,0.0,0.0,92,0.01,,,0.15,WUHU216HW,2013-06-14 08:11:00,
2013-06-14 04:16:00,54.4,52.0,29.52,North,0,0.0,0.0,92,0.01,,,0.15,WUHU216HW,2013-06-14 08:16:00,
2013-06-14 04:21:00,54.4,52.0,29.52,North,0,0.0,0.0,92,0.01,,,0.15,WUHU216HW,2013-06-14 08:21:00,
2013-06-14 04:26:00,54.4,52.0,29.52,North,0,0.0,0.0,92,0.00,,,0.15,WUHU216HW,2013-06-14 08:26:00,
2013-06-14 04:31:00,54.4,52.0,29.52,North,0,0.0,0.0,92,0.00,,,0.15,WUHU216HW,2013-06-14 08:31:00,
2013-06-14 04:36:00,54.4,52.0,29.52,North,0,0.0,0.0,92,0.00,,,0.15,WUHU216HW,2013-06-14 08:36:00,
2013-06-14 04:41:00,54.2,51.8,29.52,North,0,0.0,0.0,92,0.00,,,0.15,WUHU216HW,2013-06-14 08:41:00,
2013-06-14 04:46:00,54.2,51.8,29.52,North,0,0.0,0.0,92,0.00,,,0.15,WUHU216HW,2013-06-14 08:46:00,
2013-06-14 04:51:00,54.2,51.8,29.53,North,0,0.0,0.0,92,0.00,,,0.15,WUHU216HW,2013-06-14 08:51:00,
2013-06-14 04:56:00,54.2,51.8,29.54,North,0,0.0,0.0,92,0.00,,,0.15,WUHU216HW,2013-06-14 08:56:00,
2013-06-14 05:01:00,54.2,51.8,29.54,North,0,0.0,0.0,92,0.00,,,0.15,WUHU216HW,2013-06-14 09:01:00,
2013-06-14 05:06:00,54.2,51.8,29.55,North,0,0.0,0.0,92,0.00,,,0.15,WUHU216HW,2013-06-14 09:06:00,
2013-06-14 05:11:00,54.4,52.0,29.55,North,0,0.0,0.0,92,0.00,,,0.15,WUHU216HW,2013-06-14 09:11:00,
2013-06-14 05:16:00,54.4,52.0,29.55,North,0,0.0,0.0,92,0.00,,,0.15,WUHU216HW,2013-06-14 09:16:00,
2013-06-14 05:21:00,54.4,52.0,29.55,North,0,0.0,0.0,92,0.00,,,0.15,WUHU216HW,2013-06-14 09:21:00,
2013-06-14 05:26:00,54.4,52.0,29.55,North,0,0.0,0.0,92,0.00,,,0.15,WUHU216HW,2013-06-14 09:26:00,
2013-06-14 05:31:00,54.4,52.0,29.56,North,0,0.0,0.0,92,0.00,,,0.15,WUHU216HW,2013-06-14 09:31:00,
2013-06-14 05:36:00,54.4,52.0,29.56,North,0,0.0,0.0,92,0.00,,,0.15,WUHU216HW,2013-06-14 09:36:00,
2013-06-14 05:41:00,54.4,52.0,29.56,North,0,0.0,0.0,92,0.00,,,0.15,WUHU216HW,2013-06-14 09:41:00,
2013-06-14 05:46:00,54.4,52.0,29.56,North,0,0.0,0.0,92,0.00,,,0.15,WUHU216HW,2013-06-14 09:46:00,
2013-06-14 05:51:00,54.4,52.0,29.57,North,0,0.0,0.0,92,0.00,,,0.15,WUHU216HW,2013-06-14 09:51:00,
2013-06-14 05:56:00,54.4,52.0,29.57,North,0,0.0,0.0,92,0.00,,,0.15,WUHU216HW,2013-06-14 09:56:00,
2013-06-14 06:01:00,54.4,52.0,29.58,North,0,0.0,0.0,92,0.00,,,0.15,WUHU216HW,2013-06-14 10:01:00,
2013-06-14 06:06:00,54.4,52.0,29.58,North,0,0.0,0.0,92,0.00,,,0.15,WUHU216HW,2013-06-14 10:06:00,
2013-06-14 06:11:00,54.4,52.0,29.58,North,0,0.0,0.0,92,0.00,,,0.15,WUHU216HW,2013-06-14 10:11:00,
2013-06-14 06:16:00,54.4,52.0,29.59,North,0,0.0,0.0,92,0.00,,,0.15,WUHU216HW,2013-06-14 10:16:00,
2013-06-14 06:21:00,54.4,52.0,29.58,North,0,0.0,0.0,92,0.00,,,0.15,WUHU216HW,2013-06-14 10:21:00,
2013-06-14 06:26:00,54.4,52.0,29.59,North,0,0.0,0.0,92,0.00,,,0.15,WUHU216HW,2013-06-14 10:26:00,
2013-06-14 06:31:00,54.5,52.2,29.59,North,0,0.0,0.0,92,0.00,,,0.15,WUHU216HW,2013-06-14 10:31:00,
2013-06-14 06:36:00,54.7,52.4,29.59,North,0,0.0,0.0,92,0.00,,,0.15,WUHU216HW,2013-06-14 10:36:00,
2013-06-14 06:41:00,54.7,52.1,29.60,North,0,0.0,0.0,91,0.00,,,0.15,WUHU216HW,2013-06-14 10:41:00,
2013-06-14 06:46:00,54.7,52.1,29.59,North,0,0.0,0.0,91,0.00,,,0.15,WUHU216HW,2013-06-14 10:46:00,
2013-06-14 06:51:00,54.7,52.4,29.60,North,0,0.0,0.0,92,0.00,,,0.15,WUHU216HW,2013-06-14 10:51:00,
2013-06-14 06:56:00,54.9,52.3,29.60,North,0,0.0,0.0,91,0.00,,,0.15,WUHU216HW,2013-06-14 10:56:00,
2013-06-14 07:01:00,54.9,52.3,29.60,North,0,0.0,0.0,91,0.00,,,0.15,WUHU216HW,2013-06-14 11:01:00,
2013-06-14 07:06:00,54.9,52.0,29.60,North,0,0.0,0.0,90,0.00,,,0.15,WUHU216HW,2013-06-14 11:06:00,
2013-06-14 07:11:00,54.9,52.3,29.61,North,0,0.0,0.0,91,0.00,,,0.15,WUHU216HW,2013-06-14 11:11:00,
2013-06-14 07:16:00,55.1,52.5,29.61,North,0,0.0,0.0,91,0.00,,,0.15,WUHU216HW,2013-06-14 11:16:00,
2013-06-14 07:21:00,55.3,52.4,29.61,North,0,0.0,0.0,90,0.00,,,0.15,WUHU216HW,2013-06-14 11:21:00,
2013-06-14 07:26:00,55.3,52.7,29.61,North,0,0.0,0.0,91,0.00,,,0.15,WUHU216HW,2013-06-14 11:26:00,
2013-06-14 07:31:00,55.3,52.4,29.61,North,0,0.0,0.0,90,0.00,,,0.15,WUHU216HW,2013-06-14 11:31:00,
2013-06-14 07:36:00,55.3,52.4,29.61,North,0,0.0,0.0,90,0.00,,,0.15,WUHU216HW,2013-06-14 11:36:00,
2013-06-14 07:41:00,55.4,52.6,29.61,North,0,0.0,0.0,90,0.00,,,0.15,WUHU216HW,2013-06-14 11:41:00,
2013-06-14 07:46:00,55.6,52.7,29.61,North,0,0.0,0.0,90,0.00,,,0.15,WUHU216HW,2013-06-14 11:46:00,
2013-06-14 07:51:00,55.8,52.9,29.61,North,0,0.0,0.0,90,0.00,,,0.15,WUHU216HW,2013-06-14 11:51:00,
2013-06-14 07:56:00,56.2,52.9,29.61,North,0,0.0,0.0,89,0.00,,,0.15,WUHU216HW,2013-06-14 11:56:00,
2013-06-14 08:01:00,56.2,52.7,29.62,North,0,0.0,0.0,88,0.00,,,0.15,WUHU216HW,2013-06-14 12:01:00,
2013-06-14 08:06:00,56.2,52.9,29.63,North,0,0.0,0.0,89,0.00,,,0.15,WUHU216HW,2013-06-14 12:06:00,
2013-06-14 08:11:00,56.0,52.7,29.63,North,0,0.0,0.0,89,0.00,,,0.15,WUHU216HW,2013-06-14 12:11:00,
2013-06-14 08:16:00,56.0,52.5,29.63,North,0,0.0,0.0,88,0.00,,,0.15,WUHU216HW,2013-06-14 12:16:00,
2013-06-14 08:21:00,55.8,52.6,29.63,North,0,0.0,0.0,89,0.00,,,0.15,WUHU216HW,2013-06-14 12:21:00,
2013-06-14 08:26:00,56.0,52.7,29.63,North,0,0.0,0.0,89,0.00,,,0.15,WUHU216HW,2013-06-14 12:26:00,
2013-06-14 08:31:00,56.0,52.7,29.62,North,0,0.0,0.0,89,0.00,,,0.15,WUHU216HW,2013-06-14 12:31:00,
2013-06-14 08:36:00,56.2,52.9,29.62,North,0,0.0,0.0,89,0.00,,,0.15,WUHU216HW,2013-06-14 12:36:00,
2013-06-14 08:41:00,56.2,52.9,29.63,North,0,0.0,0.0,89,0.00,,,0.15,WUHU216HW,2013-06-14 12:41:00,
2013-06-14 08:46:00,56.5,53.3,29.63,North,0,0.0,0.0,89,0.00,,,0.15,WUHU216HW,2013-06-14 12:46:00,
2013-06-14 08:51:00,56.5,52.7,29.63,North,0,0.0,0.0,87,0.00,,,0.15,WUHU216HW,2013-06-14 12:51:00,
2013-06-14 08:56:00,56.7,53.2,29.64,North,0,0.0,0.0,88,0.00,,,0.15,WUHU216HW,2013-06-14 12:56:00,
2013-06-14 09:01:00,56.9,53.4,29.64,North,0,0.0,0.0,88,0.00,,,0.15,WUHU216HW,2013-06-14 13:01:00,
2013-06-14 09:06:00,57.1,53.6,29.64,North,0,0.0,0.0,88,0.00,,,0.15,WUHU216HW,2013-06-14 13:06:00,
2013-06-14 09:11:00,57.2,53.7,29.64,North,0,0.0,0.0,88,0.00,,,0.15,WUHU216HW,2013-06-14 13:11:00,
2013-06-14 09:16:00,57.2,53.1,29.65,North,0,0.0,0.0,86,0.00,,,0.15,WUHU216HW,2013-06-14 13:16:00,
2013-06-14 09:21:00,57.2,53.1,29.65,North,0,0.0,0.0,86,0.00,,,0.15,WUHU216HW,2013-06-14 13:21:00,
2013-06-14 09:26:00,57.2,53.1,29.66,North,0,0.0,0.0,86,0.00,,,0.15,WUHU216HW,2013-06-14 13:26:00,
2013-06-14 09:31:00,57.2,53.1,29.67,North,0,0.0,0.0,86,0.00,,,0.15,WUHU216HW,2013-06-14 13:31:00,
2013-06-14 09:36:00,57.4,53.6,29.67,North,0,0.0,0.0,87,0.00,,,0.15,WUHU216HW,2013-06-14 13:36:00,
2013-06-14 09:41:00,57.6,53.7,29.67,North,0,0.0,0.0,87,0.00,,,0.15,WUHU216HW,2013-06-14 13:41:00,
2013-06-14 09:46:00,57.4,53.3,29.67,North,0,0.0,0.0,86,0.00,,,0.15,WUHU216HW,2013-06-14 13:46:00,
2013-06-14 09:51:00,57.6,53.7,29.68,North,0,0.0,0.0,87,0.00,,,0.15,WUHU216HW,2013-06-14 13:51:00,
2013-06-14 09:56:00,57.6,53.5,29.68,North,0,0.0,0.0,86,0.00,,,0.15,WUHU216HW,2013-06-14 13:56:00,
2013-06-14 10:01:00,57.8,53.7,29.68,North,0,0.0,0.0,86,0.00,,,0.15,WUHU216HW,2013-06-14 14:01:00,
2013-06-14 10:06:00,58.0,54.1,29.69,North,0,0.0,0.0,87,0.00,,,0.15,WUHU216HW,2013-06-14 14:06:00,
2013-06-14 10:11:00,58.0,53.8,29.69,North,0,0.0,0.0,86,0.00,,,0.15,WUHU216HW,2013-06-14 14:11:00,
2013-06-14 10:16:00,58.1,54.0,29.70,North,0,0.0,0.0,86,0.00,,,0.15,WUHU216HW,2013-06-14 14:16:00,
2013-06-14 10:21:00,58.3,53.8,29.70,North,0,0.0,0.0,85,0.00,,,0.15,WUHU216HW,2013-06-14 14:21:00,
2013-06-14 10:26:00,58.3,53.5,29.70,North,0,0.0,0.0,84,0.00,,,0.15,WUHU216HW,2013-06-14 14:26:00,
2013-06-14 10:31:00,58.3,53.5,29.71,North,0,0.0,0.0,84,0.00,,,0.15,WUHU216HW,2013-06-14 14:31:00,
2013-06-14 10:36:00,58.5,54.0,29.71,North,0,0.0,0.0,85,0.00,,,0.15,WUHU216HW,2013-06-14 14:36:00,
2013-06-14 10:41:00,58.5,53.6,29.71,North,0,0.0,0.0,84,0.00,,,0.15,WUHU216HW,2013-06-14 14:41:00,
2013-06-14 10:46:00,58.7,53.8,29.71,North,0,0.0,0.0,84,0.00,,,0.15,WUHU216HW,2013-06-14 14:46:00,
2013-06-14 10:51:00,58.9,54.0,29.71,North,0,0.0,0.0,84,0.00,,,0.15,WUHU216HW,2013-06-14 14:51:00,
2013-06-14 10:56:00,59.0,54.5,29.71,North,0,0.0,0.0,85,0.00,,,0.15,WUHU216HW,2013-06-14 14:56:00,
2013-06-14 11:01:00,59.4,53.9,29.72,North,0,0.0,0.0,82,0.00,,,0.15,WUHU216HW,2013-06-14 15:01:00,
2013-06-14 11:06:00,59.6,53.8,29.71,North,0,0.0,0.0,81,0.00,,,0.15,WUHU216HW,2013-06-14 15:06:00,
2013-06-14 11:11:00,59.8,54.6,29.71,North,0,0.0,0.0,83,0.00,,,0.15,WUHU216HW,2013-06-14 15:11:00,
2013-06-14 11:16:00,60.1,54.6,29.71,North,0,0.0,0.0,82,0.00,,,0.15,WUHU216HW,2013-06-14 15:16:00,
2013-06-14 11:21:00,60.3,54.6,29.72,North,0,0.0,0.0,81,0.00,,,0.15,WUHU216HW,2013-06-14 15:21:00,
2013-06-14 11:26:00,60.5,54.0,29.72,North,0,0.0,0.0,79,0.00,,,0.15,WUHU216HW,2013-06-14 15:26:00,
2013-06-14 11:31:00,60.8,55.1,29.72,North,0,0.0,0.0,81,0.00,,,0.15,WUHU216HW,2013-06-14 15:31:00,
2013-06-14 11:36:00,61.0,53.8,29.72,North,0,0.0,0.0,77,0.00,,,0.15,WUHU216HW,2013-06-14 15:36:00,
2013-06-14 11:41:00,61.2,54.7,29.72,North,0,0.0,0.0,79,0.00,,,0.15,WUHU216HW,2013-06-14 15:41:00,
2013-06-14 11:46:00,61.0,53.8,29.72,North,0,0.0,0.0,77,0.00,,,0.15,WUHU216HW,2013-06-14 15:46:00,
2013-06-14 11:51:00,61.0,54.2,29.73,North,0,0.0,0.0,78,0.00,,,0.15,WUHU216HW,2013-06-14 15:51:00,
2013-06-14 11:56:00,60.8,53.6,29.73,North,0,0.0,0.0,77,0.00,,,0.15,WUHU216HW,2013-06-14 15:56:00,
2013-06-14 12:01:00,61.0,54.6,29.73,North,0,0.0,0.0,79,0.00,,,0.15,WUHU216HW,2013-06-14 16:01:00,
2013-06-14 12:06:00,61.4,54.8,29.73,North,0,0.0,0.0,79,0.00,,,0.15,WUHU216HW,2013-06-14 16:06:00,
2013-06-14 12:11:00,61.9,55.0,29.73,North,0,0.0,0.0,78,0.00,,,0.15,WUHU216HW,2013-06-14 16:11:00,
2013-06-14 12:16:00,62.3,53.8,29.73,North,0,0.0,0.0,74,0.00,,,0.15,WUHU216HW,2013-06-14 16:16:00,
2013-06-14 12:21:00,62.5,54.4,29.73,North,0,0.0,0.0,75,0.00,,,0.15,WUHU216HW,2013-06-14 16:21:00,
2013-06-14 12:26:00,62.6,54.5,29.73,North,0,0.0,0.0,75,0.00,,,0.15,WUHU216HW,2013-06-14 16:26:00,
2013-06-14 12:31:00,62.6,53.8,29.73,North,0,0.0,0.0,73,0.00,,,0.15,WUHU216HW,2013-06-14 16:31:00,
2013-06-14 12:36:00,62.6,53.8,29.73,North,0,0.0,0.0,73,0.00,,,0.15,WUHU216HW,2013-06-14 16:36:00,
2013-06-14 12:41:00,62.5,53.6,29.73,North,0,0.0,0.0,73,0.00,,,0.15,WUHU216HW,2013-06-14 16:41:00,
2013-06-14 12:46:00,62.5,54.0,29.73,North,0,0.0,0.0,74,0.00,,,0.15,WUHU216HW,2013-06-14 16:46:00,
2013-06-14 12:51:00,62.6,54.5,29.73,North,0,0.0,0.0,75,0.00,,,0.15,WUHU216HW,2013-06-14 16:51:00,
2013-06-14 12:56:00,63.0,54.5,29.74,North,0,0.0,0.0,74,0.00,,,0.15,WUHU216HW,2013-06-14 16:56:00,
2013-06-14 13:01:00,63.4,54.5,29.74,North,0,0.0,0.0,73,0.00,,,0.15,WUHU216HW,2013-06-14 17:01:00,
2013-06-14 13:06:00,63.5,54.4,29.74,North,0,0.0,0.0,72,0.00,,,0.15,WUHU216HW,2013-06-14 17:06:00,
2013-06-14 13:11:00,63.5,55.1,29.74,North,0,0.0,0.0,74,0.00,,,0.15,WUHU216HW,2013-06-14 17:11:00,
2013-06-14 13:16:00,63.7,54.9,29.74,North,0,0.0,0.0,73,0.00,,,0.15,WUHU216HW,2013-06-14 17:16:00,
2013-06-14 13:21:00,63.7,54.9,29.74,North,0,0.0,0.0,73,0.00,,,0.15,WUHU216HW,2013-06-14 17:21:00,
2013-06-14 13:26:00,64.1,55.6,29.74,North,0,0.0,0.0,74,0.00,,,0.15,WUHU216HW,2013-06-14 17:26:00,
2013-06-14 13:31:00,64.3,55.4,29.74,North,0,0.0,0.0,73,0.00,,,0.15,WUHU216HW,2013-06-14 17:31:00,
2013-06-14 13:36:00,64.1,54.2,29.74,North,0,0.0,0.0,70,0.00,,,0.15,WUHU216HW,2013-06-14 17:36:00,
2013-06-14 13:41:00,63.9,54.4,29.74,North,0,0.0,0.0,71,0.00,,,0.15,WUHU216HW,2013-06-14 17:41:00,
2013-06-14 13:46:00,63.9,54.7,29.74,North,0,0.0,0.0,72,0.00,,,0.15,WUHU216HW,2013-06-14 17:46:00,
2013-06-14 13:51:00,64.1,54.9,29.74,North,0,0.0,0.0,72,0.00,,,0.15,WUHU216HW,2013-06-14 17:51:00,
2013-06-14 13:56:00,64.4,55.6,29.74,North,0,0.0,0.0,73,0.00,,,0.15,WUHU216HW,2013-06-14 17:56:00,
2013-06-14 14:01:00,64.8,56.4,29.74,North,0,0.0,0.0,74,0.00,,,0.15,WUHU216HW,2013-06-14 18:01:00,
2013-06-14 14:06:00,65.2,56.3,29.74,North,0,0.0,0.0,73,0.00,,,0.15,WUHU216HW,2013-06-14 18:06:00,
2013-06-14 14:11:00,65.5,56.3,29.74,North,0,0.0,0.0,72,0.00,,,0.15,WUHU216HW,2013-06-14 18:11:00,
2013-06-14 14:16:00,65.3,54.9,29.74,North,0,0.0,0.0,69,0.00,,,0.15,WUHU216HW,2013-06-14 18:16:00,
2013-06-14 14:21:00,65.5,55.5,29.74,North,0,0.0,0.0,70,0.00,,,0.15,WUHU216HW,2013-06-14 18:21:00,
2013-06-14 14:26:00,65.9,55.8,29.73,North,0,0.0,0.0,70,0.00,,,0.15,WUHU216HW,2013-06-14 18:26:00,
2013-06-14 14:31:00,65.9,56.6,29.74,North,0,0.0,0.0,72,0.00,,,0.15,WUHU216HW,2013-06-14 18:31:00,
2013-06-14 14:36:00,66.1,56.3,29.73,North,0,0.0,0.0,71,0.00,,,0.15,WUHU216HW,2013-06-14 18:36:00,
2013-06-14 14:41:00,66.2,56.2,29.74,North,0,0.0,0.0,70,0.00,,,0.15,WUHU216HW,2013-06-14 18:41:00,
2013-06-14 14:46:00,66.6,55.7,29.73,North,0,0.0,0.0,68,0.00,,,0.15,WUHU216HW,2013-06-14 18:46:00,
2013-06-14 14:51:00,66.6,55.3,29.73,North,0,0.0,0.0,67,0.00,,,0.15,WUHU216HW,2013-06-14 18:51:00,
2013-06-14 14:56:00,66.8,56.3,29.73,North,0,0.0,0.0,69,0.00,,,0.15,WUHU216HW,2013-06-14 18:56:00,
2013-06-14 15:01:00,67.1,56.6,29.73,North,0,0.0,0.0,69,0.00,,,0.15,WUHU216HW,2013-06-14 19:01:00,
2013-06-14 15:06:00,67.3,56.8,29.73,North,0,0.0,0.0,69,0.00,,,0.15,WUHU216HW,2013-06-14 19:06:00,
2013-06-14 15:11:00,67.3,55.1,29.73,North,0,0.0,0.0,65,0.00,,,0.15,WUHU216HW,2013-06-14 19:11:00,
2013-06-14 15:16:00,67.5,56.2,29.73,North,0,0.0,0.0,67,0.00,,,0.15,WUHU216HW,2013-06-14 19:16:00,
2013-06-14 15:21:00,67.9,56.5,29.73,North,0,0.0,0.0,67,0.00,,,0.15,WUHU216HW,2013-06-14 19:21:00,
2013-06-14 15:26:00,68.0,56.3,29.72,North,0,0.0,0.0,66,0.00,,,0.15,WUHU216HW,2013-06-14 19:26:00,
2013-06-14 15:31:00,68.4,56.2,29.72,North,0,0.0,0.0,65,0.00,,,0.15,WUHU216HW,2013-06-14 19:31:00,
2013-06-14 15:36:00,68.4,56.6,29.72,North,0,0.0,0.0,66,0.00,,,0.15,WUHU216HW,2013-06-14 19:36:00,
2013-06-14 15:41:00,68.4,57.0,29.72,North,0,0.0,0.0,67,0.00,,,0.15,WUHU216HW,2013-06-14 19:41:00,
2013-06-14 15:46:00,68.8,57.3,29.72,North,0,0.0,0.0,67,0.00,,,0.15,WUHU216HW,2013-06-14 19:46:00,
2013-06-14 15:51:00,68.8,57.3,29.72,North,0,0.0,0.0,67,0.00,,,0.15,WUHU216HW,2013-06-14 19:51:00,
2013-06-14 15:56:00,68.6,57.2,29.72,North,0,0.0,0.0,67,0.00,,,0.15,WUHU216HW,2013-06-14 19:56:00,
2013-06-14 16:01:00,68.4,57.4,29.72,North,0,0.0,0.0,68,0.00,,,0.15,WUHU216HW,2013-06-14 20:01:00,
2013-06-14 16:06:00,68.2,57.2,29.72,North,0,0.0,0.0,68,0.00,,,0.15,WUHU216HW,2013-06-14 20:06:00,
2013-06-14 16:11:00,68.2,57.2,29.72,North,0,0.0,0.0,68,0.00,,,0.15,WUHU216HW,2013-06-14 20:11:00,
2013-06-14 16:16:00,68.4,57.4,29.72,North,0,0.0,0.0,68,0.00,,,0.15,WUHU216HW,2013-06-14 20:16:00,
2013-06-14 16:21:00,68.4,57.9,29.72,North,0,0.0,0.0,69,0.00,,,0.15,WUHU216HW,2013-06-14 20:21:00,
2013-06-14 16:26:00,68.6,57.6,29.73,North,0,0.0,0.0,68,0.00,,,0.15,WUHU216HW,2013-06-14 20:26:00,
2013-06-14 16:31:00,68.6,58.1,29.73,North,0,0.0,0.0,69,0.00,,,0.15,WUHU216HW,2013-06-14 20:31:00,
2013-06-14 16:36:00,68.6,58.1,29.73,North,0,0.0,0.0,69,0.00,,,0.15,WUHU216HW,2013-06-14 20:36:00,
2013-06-14 16:41:00,68.6,58.1,29.73,North,0,0.0,0.0,69,0.00,,,0.15,WUHU216HW,2013-06-14 20:41:00,
2013-06-14 16:46:00,68.4,57.9,29.74,North,0,0.0,0.0,69,0.00,,,0.15,WUHU216HW,2013-06-14 20:46:00,
2013-06-14 16:51:00,68.2,57.2,29.74,North,0,0.0,0.0,68,0.00,,,0.15,WUHU216HW,2013-06-14 20:51:00,
2013-06-14 16:56:00,67.9,56.9,29.73,North,0,0.0,0.0,68,0.00,,,0.15,WUHU216HW,2013-06-14 20:56:00,
2013-06-14 17:01:00,67.7,56.7,29.73,North,0,0.0,0.0,68,0.00,,,0.15,WUHU216HW,2013-06-14 21:01:00,
2013-06-14 17:06:00,67.5,56.6,29.74,North,0,0.0,0.0,68,0.00,,,0.15,WUHU216HW,2013-06-14 21:06:00,
2013-06-14 17:11:00,67.3,56.4,29.74,North,0,0.0,0.0,68,0.00,,,0.15,WUHU216HW,2013-06-14 21:11:00,
2013-06-14 17:16:00,67.1,56.6,29.74,North,0,0.0,0.0,69,0.00,,,0.15,WUHU216HW,2013-06-14 21:16:00,
2013-06-14 17:21:00,67.0,56.1,29.74,North,0,0.0,0.0,68,0.00,,,0.15,WUHU216HW,2013-06-14 21:21:00,
2013-06-14 17:26:00,66.8,55.9,29.74,North,0,0.0,0.0,68,0.00,,,0.15,WUHU216HW,2013-06-14 21:26:00,
2013-06-14 17:31:00,66.6,56.1,29.74,North,0,0.0,0.0,69,0.00,,,0.15,WUHU216HW,2013-06-14 21:31:00,
2013-06-14 17:36:00,66.4,55.9,29.74,North,0,0.0,0.0,69,0.00,,,0.15,WUHU216HW,2013-06-14 21:36:00,
2013-06-14 17:41:00,66.2,56.2,29.74,North,0,0.0,0.0,70,0.00,,,0.15,WUHU216HW,2013-06-14 21:41:00,
2013-06-14 17:46:00,66.6,56.5,29.74,North,0,0.0,0.0,70,0.00,,,0.15,WUHU216HW,2013-06-14 21:46:00,
2013-06-14 17:51:00,66.6,56.5,29.74,North,0,0.0,0.0,70,0.00,,,0.15,WUHU216HW,2013-06-14 21:51:00,
2013-06-14 17:56:00,66.8,56.7,29.74,North,0,0.0,0.0,70,0.00,,,0.15,WUHU216HW,2013-06-14 21:56:00,
2013-06-14 18:01:00,67.0,56.9,29.74,North,0,0.0,0.0,70,0.00,,,0.15,WUHU216HW,2013-06-14 22:01:00,
2013-06-14 18:06:00,66.8,56.7,29.74,North,0,0.0,0.0,70,0.00,,,0.15,WUHU216HW,2013-06-14 22:06:00,
2013-06-14 18:11:00,66.6,56.5,29.74,North,0,0.0,0.0,70,0.00,,,0.15,WUHU216HW,2013-06-14 22:11:00,
2013-06-14 18:16:00,66.6,56.5,29.74,North,0,0.0,0.0,70,0.00,,,0.15,WUHU216HW,2013-06-14 22:16:00,
2013-06-14 18:21:00,66.4,56.7,29.75,North,0,0.0,0.0,71,0.00,,,0.15,WUHU216HW,2013-06-14 22:21:00,
2013-06-14 18:26:00,66.2,56.5,29.75,North,0,0.0,0.0,71,0.00,,,0.15,WUHU216HW,2013-06-14 22:26:00,
2013-06-14 18:31:00,65.9,56.3,29.75,North,0,0.0,0.0,71,0.00,,,0.15,WUHU216HW,2013-06-14 22:31:00,
2013-06-14 18:36:00,65.9,56.6,29.75,North,0,0.0,0.0,72,0.00,,,0.15,WUHU216HW,2013-06-14 22:36:00,
2013-06-14 18:41:00,65.7,56.4,29.75,North,0,0.0,0.0,72,0.00,,,0.15,WUHU216HW,2013-06-14 22:41:00,
2013-06-14 18:46:00,65.5,56.3,29.76,North,0,0.0,0.0,72,0.00,,,0.15,WUHU216HW,2013-06-14 22:46:00,
2013-06-14 18:51:00,65.5,56.3,29.76,North,0,0.0,0.0,72,0.00,,,0.15,WUHU216HW,2013-06-14 22:51:00,
2013-06-14 18:56:00,65.5,56.3,29.77,North,0,0.0,0.0,72,0.00,,,0.15,WUHU216HW,2013-06-14 22:56:00,
2013-06-14 19:01:00,65.5,56.3,29.77,North,0,0.0,0.0,72,0.00,,,0.15,WUHU216HW,2013-06-14 23:01:00,
2013-06-14 19:06:00,65.5,56.6,29.77,North,0,0.0,0.0,73,0.00,,,0.15,WUHU216HW,2013-06-14 23:06:00,
2013-06-14 19:11:00,65.5,56.6,29.77,North,0,0.0,0.0,73,0.00,,,0.15,WUHU216HW,2013-06-14 23:11:00,
2013-06-14 19:16:00,65.5,57.0,29.77,North,0,0.0,0.0,74,0.00,,,0.15,WUHU216HW,2013-06-14 23:16:00,
2013-06-14 19:21:00,65.2,56.7,29.77,North,0,0.0,0.0,74,0.01,,,0.15,WUHU216HW,2013-06-14 23:21:00,
2013-06-14 19:26:00,64.8,56.7,29.77,North,0,0.0,0.0,75,0.01,,,0.15,WUHU216HW,2013-06-14 23:26:00,
2013-06-14 19:31:00,64.4,56.7,29.77,North,0,0.0,0.0,76,0.01,,,0.15,WUHU216HW,2013-06-14 23:31:00,
2013-06-14 19:36:00,64.4,57.1,29.77,North,0,0.0,0.0,77,0.01,,,0.15,WUHU216HW,2013-06-14 23:36:00,
2013-06-14 19:41:00,64.3,56.9,29.77,North,0,0.0,0.0,77,0.01,,,0.15,WUHU216HW,2013-06-14 23:41:00,
2013-06-14 19:46:00,64.1,56.7,29.77,North,0,0.0,0.0,77,0.01,,,0.15,WUHU216HW,2013-06-14 23:46:00,
2013-06-14 19:51:00,63.9,56.5,29.77,North,0,0.0,0.0,77,0.01,,,0.15,WUHU216HW,2013-06-14 23:51:00,
2013-06-14 19:56:00,63.9,56.9,29.77,North,0,0.0,0.0,78,0.01,,,0.15,WUHU216HW,2013-06-14 23:56:00,
2013-06-14 20:01:00,63.7,56.7,29.77,North,0,0.0,0.0,78,0.01,,,0.15,WUHU216HW,2013-06-15 00:01:00,
2013-06-14 20:06:00,63.7,57.1,29.77,North,0,0.0,0.0,79,0.01,,,0.15,WUHU216HW,2013-06-15 00:06:00,
2013-06-14 20:11:00,63.5,56.9,29.77,North,0,0.0,0.0,79,0.01,,,0.15,WUHU216HW,2013-06-15 00:11:00,
2013-06-14 20:16:00,63.5,57.2,29.77,North,0,0.0,0.0,80,0.00,,,0.15,WUHU216HW,2013-06-15 00:16:00,
2013-06-14 20:21:00,63.5,57.2,29.77,North,0,0.0,0.0,80,0.00,,,0.15,WUHU216HW,2013-06-15 00:21:00,
2013-06-14 20:26:00,63.5,57.2,29.77,North,0,0.0,0.0,80,0.00,,,0.15,WUHU216HW,2013-06-15 00:26:00,
2013-06-14 20:31:00,63.5,57.2,29.78,North,0,0.0,0.0,80,0.00,,,0.15,WUHU216HW,2013-06-15 00:31:00,
2013-06-14 20:36:00,63.4,56.7,29.77,North,0,0.0,0.0,79,0.00,,,0.15,WUHU216HW,2013-06-15 00:36:00,
2013-06-14 20:41:00,63.4,56.7,29.77,North,0,0.0,0.0,79,0.00,,,0.15,WUHU216HW,2013-06-15 00:41:00,
2013-06-14 20:46:00,63.2,56.5,29.77,North,0,0.0,0.0,79,0.00,,,0.15,WUHU216HW,2013-06-15 00:46:00,
2013-06-14 20:51:00,63.0,56.3,29.78,North,0,0.0,0.0,79,0.00,,,0.15,WUHU216HW,2013-06-15 00:51:00,
2013-06-14 20:56:00,63.0,56.7,29.78,North,0,0.0,0.0,80,0.00,,,0.15,WUHU216HW,2013-06-15 00:56:00,
2013-06-14 21:01:00,62.8,56.5,29.78,North,0,0.0,0.0,80,0.00,,,0.15,WUHU216HW,2013-06-15 01:01:00,
2013-06-14 21:06:00,62.6,56.7,29.78,North,0,0.0,0.0,81,0.00,,,0.15,WUHU216HW,2013-06-15 01:06:00,
2013-06-14 21:11:00,62.6,56.7,29.78,North,0,0.0,0.0,81,0.00,,,0.15,WUHU216HW,2013-06-15 01:11:00,
2013-06-14 21:16:00,62.6,56.7,29.78,North,0,0.0,0.0,81,0.00,,,0.15,WUHU216HW,2013-06-15 01:16:00,
2013-06-14 21:21:00,62.5,56.5,29.78,North,0,0.0,0.0,81,0.00,,,0.15,WUHU216HW,2013-06-15 01:21:00,
2013-06-14 21:26:00,62.3,56.3,29.78,North,0,0.0,0.0,81,0.00,,,0.15,WUHU216HW,2013-06-15 01:26:00,
2013-06-14 21:31:00,62.3,56.7,29.78,North,0,0.0,0.0,82,0.00,,,0.15,WUHU216HW,2013-06-15 01:31:00,
2013-06-14 21:36:00,62.3,56.7,29.79,North,0,0.0,0.0,82,0.00,,,0.15,WUHU216HW,2013-06-15 01:36:00,
2013-06-14 21:41:00,62.3,56.7,29.79,North,0,0.0,0.0,82,0.00,,,0.15,WUHU216HW,2013-06-15 01:41:00,
2013-06-14 21:46:00,62.3,57.1,29.79,North,0,0.0,0.0,83,0.00,,,0.15,WUHU216HW,2013-06-15 01:46:00,
2013-06-14 21:51:00,62.1,56.9,29.79,North,0,0.0,0.0,83,0.00,,,0.15,WUHU216HW,2013-06-15 01:51:00,
2013-06-14 21:56:00,62.1,56.9,29.79,North,0,0.0,0.0,83,0.00,,,0.15,WUHU216HW,2013-06-15 01:56:00,
2013-06-14 22:01:00,61.9,56.7,29.79,North,0,0.0,0.0,83,0.00,,,0.15,WUHU216HW,2013-06-15 02:01:00,
2013-06-14 22:06:00,61.7,56.5,29.79,North,0,0.0,0.0,83,0.00,,,0.15,WUHU216HW,2013-06-15 02:06:00,
2013-06-14 22:11:00,61.6,56.3,29.80,North,0,0.0,0.0,83,0.00,,,0.15,WUHU216HW,2013-06-15 02:11:00,
2013-06-14 22:16:00,61.6,56.3,29.80,North,0,0.0,0.0,83,0.00,,,0.15,WUHU216HW,2013-06-15 02:16:00,
2013-06-14 22:21:00,61.6,56.7,29.80,North,0,0.0,0.0,84,0.00,,,0.15,WUHU216HW,2013-06-15 02:21:00,
2013-06-14 22:26:00,61.6,56.7,29.80,North,0,0.0,0.0,84,0.00,,,0.15,WUHU216HW,2013-06-15 02:26:00,
2013-06-14 22:31:00,61.4,56.5,29.80,North,0,0.0,0.0,84,0.00,,,0.15,WUHU216HW,2013-06-15 02:31:00,
2013-06-14 22:36:00,61.4,56.5,29.81,North,0,0.0,0.0,84,0.00,,,0.15,WUHU216HW,2013-06-15 02:36:00,
2013-06-14 22:41:00,61.4,56.5,29.81,North,0,0.0,0.0,84,0.00,,,0.15,WUHU216HW,2013-06-15 02:41:00,
2013-06-14 22:46:00,61.2,56.3,29.81,North,0,0.0,0.0,84,0.00,,,0.15,WUHU216HW,2013-06-15 02:46:00,
2013-06-14 22:51:00,61.2,56.7,29.81,North,0,0.0,0.0,85,0.00,,,0.15,WUHU216HW,2013-06-15 02:51:00,
2013-06-14 22:56:00,61.2,56.7,29.81,North,0,0.0,0.0,85,0.00,,,0.15,WUHU216HW,2013-06-15 02:56:00,
2013-06-14 23:01:00,61.4,56.5,29.81,North,0,0.0,0.0,84,0.00,,,0.15,WUHU216HW,2013-06-15 03:01:00,
2013-06-14 23:06:00,61.4,56.5,29.81,North,0,0.0,0.0,84,0.00,,,0.15,WUHU216HW,2013-06-15 03:06:00,
2013-06-14 23:11:00,61.2,56.3,29.81,North,0,0.0,0.0,84,0.00,,,0.15,WUHU216HW,2013-06-15 03:11:00,
2013-06-14 23:16:00,61.2,56.3,29.81,North,0,0.0,0.0,84,0.00,,,0.15,WUHU216HW,2013-06-15 03:16:00,
2013-06-14 23:21:00,61.2,56.3,29.81,North,0,0.0,0.0,84,0.00,,,0.15,WUHU216HW,2013-06-15 03:21:00,
2013-06-14 23:26:00,61.0,56.5,29.81,North,0,0.0,0.0,85,0.00,,,0.15,WUHU216HW,2013-06-15 03:26:00,
2013-06-14 23:31:00,61.0,56.5,29.81,North,0,0.0,0.0,85,0.00,,,0.15,WUHU216HW,2013-06-15 03:31:00,
2013-06-14 23:36:00,61.0,56.5,29.81,North,0,0.0,0.0,85,0.00,,,0.15,WUHU216HW,2013-06-15 03:36:00,
2013-06-14 23:41:00,61.0,56.5,29.81,North,0,0.0,0.0,85,0.00,,,0.15,WUHU216HW,2013-06-15 03:41:00,
2013-06-14 23:46:00,61.2,56.7,29.82,North,0,0.0,0.0,85,0.00,,,0.15,WUHU216HW,2013-06-15 03:46:00,
2013-06-14 23:51:00,61.2,56.7,29.82,North,0,0.0,0.0,85,0.00,,,0.15,WUHU216HW,2013-06-15 03:51:00,
2013-06-14 23:56:00,61.2,56.3,29.82,North,0,0.0,0.0,84,0.00,,,0.15,WUHU216HW,2013-06-15 03:56:00,